Change the Weather History Date:

Wednesday, March 19, 2014

  Actual Average Record
Temperature  
Mean Temperature 66 °F 63 °F  
Max Temperature 75 °F 74 °F 89 °F (1908)
Min Temperature 57 °F 53 °F 27 °F (1923)
Degree Days  
Heating Degree Days 0 4  
Month to date heating degree days 182 104  
Since 1 July heating degree days 1662 1292  
Cooling Degree Days 1 2  
Month to date cooling degree days 12 36  
Year to date cooling degree days 46 74  
Growing Degree Days 16 (Base 50)    
Moisture  
Dew Point 58 °F    
Average Humidity 69    
Maximum Humidity 93    
Minimum Humidity 44    
Precipitation  
Precipitation 0.00 in 0.09 in 4.20 in (1905)
Month to date precipitation 2.21 2.09  
Year to date precipitation 5.56 8.67  
Sea Level Pressure  
Sea Level Pressure 30.04 in    
Wind  
Wind Speed 5 mph (North)    
Max Wind Speed 16 mph    
Max Gust Speed 22 mph    
Visibility 10 miles    
Events      
T = Trace of Precipitation, MM = Missing Value Source: NWS Daily Summary

Daily Weather History Graph

Daily Weather History Graph

Search for Another Location

Airport or City:

Trip Planner

Search our weather history database for the weather conditions in past years. The results will help you decide how hot, cold, wet, or windy it might be!

Date:

Astronomy

Mar. 19, 2014 Rise Set
Actual Time 7:26 AM CDT 7:31 PM CDT
Civil Twilight 7:02 AM CDT 7:55 PM CDT
Nautical Twilight 6:34 AM CDT 8:23 PM CDT
Astronomical Twilight 6:06 AM CDT 8:51 PM CDT
Moon 10:35 PM CDT (3/19) 9:06 AM CDT (3/19)
Length of Visible Light 12h 53m
Length of Day
12h 05m
Waning Gibbous, 91% of the Moon is Illuminated
Mar 19
Waning Gibbous
Mar 23
Last Quarter
Mar 30
New
Apr 7
First Quarter
Apr 15
Full

Hourly Weather History & Observations

Time (CDT) Temp. Dew Point Humidity Pressure Visibility Wind Dir Wind Speed Gust Speed Precip Events Conditions
12:53 AM 61.0 °F 57.9 °F 90% 29.90 in 10.0 mi South 8.1 mph - N/A   Partly Cloudy
1:53 AM 63.0 °F 57.9 °F 84% 29.90 in 10.0 mi South 10.4 mph - N/A   Clear
2:53 AM 62.1 °F 57.0 °F 84% 29.91 in 10.0 mi South 5.8 mph - N/A   Clear
3:53 AM 61.0 °F 57.0 °F 87% 29.92 in 10.0 mi South 3.5 mph - N/A   Clear
4:21 AM 60.8 °F 57.2 °F 88% 29.95 in 10.0 mi NNW 9.2 mph - N/A   Mostly Cloudy
4:53 AM 61.0 °F 57.9 °F 90% 29.97 in 10.0 mi NNW 4.6 mph - N/A   Overcast
5:53 AM 61.0 °F 57.9 °F 90% 29.99 in 10.0 mi Calm Calm - N/A   Mostly Cloudy
6:53 AM 62.1 °F 57.9 °F 86% 30.01 in 10.0 mi Calm Calm - N/A   Mostly Cloudy
7:53 AM 61.0 °F 57.0 °F 87% 30.02 in 10.0 mi Calm Calm - N/A   Partly Cloudy
8:53 AM 64.9 °F 59.0 °F 81% 30.05 in 10.0 mi ENE 3.5 mph - N/A   Partly Cloudy
9:10 AM 66.2 °F 60.8 °F 83% 30.04 in 10.0 mi Calm Calm - N/A   Mostly Cloudy
9:53 AM 66.9 °F 59.0 °F 76% 30.08 in 10.0 mi Calm Calm - N/A   Overcast
10:06 AM 66.2 °F 60.8 °F 83% 30.07 in 10.0 mi Calm Calm - N/A   Overcast
10:53 AM 68.0 °F 60.1 °F 76% 30.10 in 10.0 mi Calm Calm - N/A   Overcast
11:53 AM 70.0 °F 60.1 °F 71% 30.10 in 10.0 mi Calm Calm - N/A   Overcast
12:53 PM 71.1 °F 60.1 °F 68% 30.10 in 10.0 mi NW 6.9 mph - N/A   Overcast
1:53 PM 73.0 °F 59.0 °F 61% 30.09 in 10.0 mi North 4.6 mph - N/A   Overcast
2:53 PM 73.9 °F 57.9 °F 57% 30.08 in 10.0 mi NW 9.2 mph - N/A   Overcast
3:53 PM 73.9 °F 57.9 °F 57% 30.07 in 10.0 mi North 9.2 mph - N/A   Mostly Cloudy
4:53 PM 73.0 °F 57.9 °F 59% 30.07 in 10.0 mi North 5.8 mph - N/A   Mostly Cloudy
5:53 PM 73.0 °F 59.0 °F 61% 30.06 in 10.0 mi ENE 6.9 mph - N/A   Mostly Cloudy
6:53 PM 72.0 °F 57.0 °F 59% 30.07 in 10.0 mi ENE 5.8 mph - N/A   Scattered Clouds
7:53 PM 68.0 °F 57.9 °F 70% 30.09 in 10.0 mi Calm Calm - N/A   Mostly Cloudy
8:53 PM 66.9 °F 60.1 °F 79% 30.11 in 10.0 mi South 4.6 mph - N/A   Mostly Cloudy
9:53 PM 66.9 °F 61.0 °F 81% 30.14 in 10.0 mi West 6.9 mph - N/A   Overcast
10:53 PM 66.9 °F 61.0 °F 81% 30.14 in 10.0 mi Calm Calm - N/A   Overcast
11:53 PM 64.9 °F 46.0 °F 50% 30.16 in 10.0 mi North 11.5 mph - N/A   Overcast